Time,TemperatureF,DewpointF,PressureIn,WindDirection,WindDirectionDegrees,WindSpeedMPH,WindSpeedGustMPH,Humidity,HourlyPrecipIn,Conditions,Clouds,dailyrainin,SoftwareType,DateUTC
2013-03-14 00:03:00,58.8,38.7,29.23,SE,142,0.0,0.0,47,0.00,,---,0.00,VWS V14.00,2013-03-14 07:03:00,
2013-03-14 00:08:00,58.6,38.5,29.23,SE,142,0.0,0.0,47,0.00,,---,0.00,VWS V14.00,2013-03-14 07:08:00,
2013-03-14 00:14:00,58.5,38.3,29.23,SE,142,0.0,0.0,47,0.00,,---,0.00,VWS V14.00,2013-03-14 07:14:00,
2013-03-14 00:20:00,58.3,38.2,29.23,SE,142,0.0,0.0,47,0.00,,---,0.00,VWS V14.00,2013-03-14 07:20:00,
2013-03-14 00:25:00,58.3,38.2,29.23,SE,142,0.0,0.0,47,0.00,,---,0.00,VWS V14.00,2013-03-14 07:25:00,
2013-03-14 00:31:00,58.1,38.5,29.23,SE,142,0.0,0.0,48,0.00,,---,0.00,VWS V14.00,2013-03-14 07:31:00,
2013-03-14 00:36:00,58.1,38.5,29.23,SE,142,0.0,0.0,48,0.00,,---,0.00,VWS V14.00,2013-03-14 07:36:00,
2013-03-14 00:41:00,57.9,38.4,29.23,SE,142,0.0,0.0,48,0.00,,---,0.00,VWS V14.00,2013-03-14 07:41:00,
2013-03-14 00:47:00,57.7,38.2,29.23,SE,142,0.0,0.0,48,0.00,,---,0.00,VWS V14.00,2013-03-14 07:47:00,
2013-03-14 00:52:00,57.7,38.7,29.23,SE,142,0.0,0.0,49,0.00,,---,0.00,VWS V14.00,2013-03-14 07:52:00,
2013-03-14 01:04:00,57.7,39.2,29.23,SE,142,0.0,0.0,50,0.00,,---,0.00,VWS V14.00,2013-03-14 08:04:00,
2013-03-14 01:10:00,57.7,39.2,29.23,SE,142,0.0,0.0,50,0.00,,---,0.00,VWS V14.00,2013-03-14 08:10:00,
2013-03-14 01:17:00,57.6,39.1,29.23,SE,142,0.0,0.0,50,0.00,,---,0.00,VWS V14.00,2013-03-14 08:17:00,
2013-03-14 01:22:00,57.6,39.6,29.23,SE,142,0.0,0.0,51,0.00,,---,0.00,VWS V14.00,2013-03-14 08:22:00,
2013-03-14 01:27:00,57.7,40.2,29.23,SW,223,0.0,0.0,52,0.00,,---,0.00,VWS V14.00,2013-03-14 08:27:00,
2013-03-14 01:33:00,57.9,40.9,29.23,SW,229,0.0,0.0,53,0.00,,---,0.00,VWS V14.00,2013-03-14 08:33:00,
2013-03-14 01:38:00,57.9,40.9,29.23,SW,229,0.0,0.0,53,0.00,,---,0.00,VWS V14.00,2013-03-14 08:38:00,
2013-03-14 01:43:00,57.7,40.7,29.23,SW,229,0.0,0.0,53,0.00,,---,0.00,VWS V14.00,2013-03-14 08:43:00,
2013-03-14 01:49:00,57.6,40.1,29.23,SW,229,0.0,0.0,52,0.00,,---,0.00,VWS V14.00,2013-03-14 08:49:00,
2013-03-14 01:57:00,57.2,39.8,29.23,SW,229,0.0,0.0,52,0.00,,---,0.00,VWS V14.00,2013-03-14 08:57:00,
2013-03-14 02:03:00,56.8,39.9,29.23,SW,229,0.0,0.0,53,0.00,,---,0.00,VWS V14.00,2013-03-14 09:03:00,
2013-03-14 02:09:00,56.7,39.7,29.23,SW,229,0.0,0.0,53,0.00,,---,0.00,VWS V14.00,2013-03-14 09:09:00,
2013-03-14 02:22:00,56.1,39.7,29.23,SW,229,0.0,0.0,54,0.00,,---,0.00,VWS V14.00,2013-03-14 09:22:00,
2013-03-14 02:31:00,54.9,41.2,29.23,SW,229,0.0,0.0,60,0.00,,---,0.00,VWS V14.00,2013-03-14 09:31:00,
2013-03-14 02:32:00,54.9,41.2,29.23,SW,229,0.0,0.0,60,0.00,,---,0.00,VWS V14.00,2013-03-14 09:32:00,
2013-03-14 02:33:00,54.9,41.2,29.23,SW,229,0.0,0.0,60,0.00,,---,0.00,VWS V14.00,2013-03-14 09:33:00,
2013-03-14 02:34:00,54.9,41.2,29.23,SW,229,0.0,0.0,60,0.00,,---,0.00,VWS V14.00,2013-03-14 09:34:00,
2013-03-14 02:37:00,54.9,41.2,29.23,SW,229,0.0,0.0,60,0.00,,---,0.00,VWS V14.00,2013-03-14 09:37:00,
2013-03-14 02:39:00,54.9,41.2,29.23,SW,229,0.0,0.0,60,0.00,,---,0.00,VWS V14.00,2013-03-14 09:39:00,
2013-03-14 02:40:00,54.9,41.2,29.23,SW,229,0.0,0.0,60,0.00,,---,0.00,VWS V14.00,2013-03-14 09:40:00,
2013-03-14 02:41:00,54.9,41.2,29.23,SW,229,0.0,0.0,60,0.00,,---,0.00,VWS V14.00,2013-03-14 09:41:00,
2013-03-14 02:42:00,54.9,41.2,29.23,SW,229,0.0,0.0,60,0.00,,---,0.00,VWS V14.00,2013-03-14 09:42:00,
2013-03-14 02:43:00,54.9,41.2,29.23,SW,229,0.0,0.0,60,0.00,,---,0.00,VWS V14.00,2013-03-14 09:43:00,
2013-03-14 02:44:00,54.9,41.2,29.23,SW,229,0.0,0.0,60,0.00,,---,0.00,VWS V14.00,2013-03-14 09:44:00,
2013-03-14 02:45:00,54.9,41.7,29.23,SW,229,0.0,0.0,61,0.00,,---,0.00,VWS V14.00,2013-03-14 09:45:00,
2013-03-14 02:46:00,54.9,41.7,29.23,SW,229,0.0,0.0,61,0.00,,---,0.00,VWS V14.00,2013-03-14 09:46:00,
2013-03-14 02:47:00,54.9,41.7,29.23,SW,229,0.0,0.0,61,0.00,,---,0.00,VWS V14.00,2013-03-14 09:47:00,
2013-03-14 02:48:00,54.9,41.7,29.23,SW,229,0.0,0.0,61,0.00,,---,0.00,VWS V14.00,2013-03-14 09:48:00,
2013-03-14 02:49:00,55.0,41.8,29.23,SW,229,0.0,0.0,61,0.00,,---,0.00,VWS V14.00,2013-03-14 09:49:00,
2013-03-14 02:50:00,55.0,41.8,29.23,SW,229,0.0,0.0,61,0.00,,---,0.00,VWS V14.00,2013-03-14 09:50:00,
2013-03-14 02:51:00,55.0,41.8,29.23,SW,229,0.0,0.0,61,0.00,,---,0.00,VWS V14.00,2013-03-14 09:51:00,
2013-03-14 02:52:00,55.0,41.8,29.23,SW,229,0.0,0.0,61,0.00,,---,0.00,VWS V14.00,2013-03-14 09:52:00,
2013-03-14 02:53:00,55.0,41.8,29.23,SW,229,0.0,0.0,61,0.00,,---,0.00,VWS V14.00,2013-03-14 09:53:00,
2013-03-14 02:54:00,55.0,41.8,29.23,SW,229,0.0,0.0,61,0.00,,---,0.00,VWS V14.00,2013-03-14 09:54:00,
2013-03-14 02:55:00,55.0,41.8,29.23,SW,229,0.0,0.0,61,0.00,,---,0.00,VWS V14.00,2013-03-14 09:55:00,
2013-03-14 02:56:00,55.0,41.8,29.23,SW,229,0.0,0.0,61,0.00,,---,0.00,VWS V14.00,2013-03-14 09:56:00,
2013-03-14 02:57:00,55.0,41.8,29.23,SW,229,0.0,0.0,61,0.00,,---,0.00,VWS V14.00,2013-03-14 09:57:00,
2013-03-14 02:59:00,55.0,41.8,29.23,SW,229,0.0,0.0,61,0.00,,---,0.00,VWS V14.00,2013-03-14 09:59:00,
2013-03-14 03:04:00,55.0,42.3,29.23,SW,229,0.0,0.0,62,0.00,,---,0.00,VWS V14.00,2013-03-14 10:04:00,
2013-03-14 03:05:00,55.0,42.3,29.23,SW,229,0.0,0.0,62,0.00,,---,0.00,VWS V14.00,2013-03-14 10:05:00,
2013-03-14 03:06:00,55.0,42.3,29.23,SW,229,0.0,0.0,62,0.00,,---,0.00,VWS V14.00,2013-03-14 10:06:00,
2013-03-14 03:07:00,55.0,42.3,29.23,SW,229,0.0,0.0,62,0.00,,---,0.00,VWS V14.00,2013-03-14 10:07:00,
2013-03-14 03:08:00,55.0,42.3,29.23,SW,229,0.0,0.0,62,0.00,,---,0.00,VWS V14.00,2013-03-14 10:08:00,
2013-03-14 03:09:00,55.0,42.3,29.23,SW,229,0.0,0.0,62,0.00,,---,0.00,VWS V14.00,2013-03-14 10:09:00,
2013-03-14 03:10:00,55.2,42.4,29.23,SW,229,0.0,0.0,62,0.00,,---,0.00,VWS V14.00,2013-03-14 10:10:00,
2013-03-14 03:11:00,55.2,42.4,29.23,SW,229,0.0,0.0,62,0.00,,---,0.00,VWS V14.00,2013-03-14 10:11:00,
2013-03-14 03:12:00,55.2,42.4,29.23,SW,229,0.0,0.0,62,0.00,,---,0.00,VWS V14.00,2013-03-14 10:12:00,
2013-03-14 03:35:00,54.5,42.2,29.21,SW,229,0.0,0.0,63,0.00,,---,0.00,VWS V14.00,2013-03-14 10:35:00,
2013-03-14 03:36:00,54.5,42.2,29.21,SW,229,0.0,0.0,63,0.00,,---,0.00,VWS V14.00,2013-03-14 10:36:00,
2013-03-14 03:37:00,54.5,42.2,29.21,SW,229,0.0,0.0,63,0.00,,---,0.00,VWS V14.00,2013-03-14 10:37:00,
2013-03-14 03:38:00,54.5,42.2,29.21,SW,229,0.0,0.0,63,0.00,,---,0.00,VWS V14.00,2013-03-14 10:38:00,
2013-03-14 03:39:00,54.5,42.2,29.21,SW,229,0.0,0.0,63,0.00,,---,0.00,VWS V14.00,2013-03-14 10:39:00,
2013-03-14 03:40:00,54.5,42.2,29.21,SW,229,0.0,0.0,63,0.00,,---,0.00,VWS V14.00,2013-03-14 10:40:00,
2013-03-14 03:41:00,54.5,42.2,29.21,SW,229,0.0,0.0,63,0.00,,---,0.00,VWS V14.00,2013-03-14 10:41:00,
2013-03-14 03:42:00,54.5,42.2,29.21,SW,229,0.0,0.0,63,0.00,,---,0.00,VWS V14.00,2013-03-14 10:42:00,
2013-03-14 03:43:00,54.5,42.2,29.21,SW,229,0.0,0.0,63,0.00,,---,0.00,VWS V14.00,2013-03-14 10:43:00,
2013-03-14 03:44:00,54.3,42.0,29.21,SW,229,0.0,0.0,63,0.00,,---,0.00,VWS V14.00,2013-03-14 10:44:00,
2013-03-14 03:47:00,54.3,42.0,29.21,SW,229,0.0,0.0,63,0.00,,---,0.00,VWS V14.00,2013-03-14 10:47:00,
2013-03-14 03:48:00,54.3,42.0,29.21,SW,229,0.0,0.0,63,0.00,,---,0.00,VWS V14.00,2013-03-14 10:48:00,
2013-03-14 03:49:00,54.1,41.8,29.21,SW,229,0.0,0.0,63,0.00,,---,0.00,VWS V14.00,2013-03-14 10:49:00,
2013-03-14 03:51:00,54.1,41.8,29.21,SW,229,0.0,0.0,63,0.00,,---,0.00,VWS V14.00,2013-03-14 10:51:00,
2013-03-14 03:52:00,54.1,42.2,29.21,SW,229,0.0,0.0,64,0.00,,---,0.00,VWS V14.00,2013-03-14 10:52:00,
2013-03-14 03:53:00,54.1,42.2,29.21,SW,229,0.0,0.0,64,0.00,,---,0.00,VWS V14.00,2013-03-14 10:53:00,
2013-03-14 03:54:00,54.0,42.1,29.21,SW,229,0.0,0.0,64,0.00,,---,0.00,VWS V14.00,2013-03-14 10:54:00,
2013-03-14 03:55:00,54.0,42.1,29.21,SW,229,0.0,0.0,64,0.00,,---,0.00,VWS V14.00,2013-03-14 10:55:00,
2013-03-14 03:56:00,54.0,42.1,29.21,SW,229,0.0,0.0,64,0.00,,---,0.00,VWS V14.00,2013-03-14 10:56:00,
2013-03-14 03:57:00,54.0,42.1,29.21,SW,229,0.0,0.0,64,0.00,,---,0.00,VWS V14.00,2013-03-14 10:57:00,
2013-03-14 04:28:00,54.1,43.4,29.21,SW,229,0.0,0.0,67,0.00,,---,0.00,VWS V14.00,2013-03-14 11:28:00,
2013-03-14 04:29:00,54.1,43.4,29.21,SW,229,0.0,0.0,67,0.00,,---,0.00,VWS V14.00,2013-03-14 11:29:00,
2013-03-14 04:30:00,54.1,43.4,29.21,SW,229,0.0,0.0,67,0.00,,---,0.00,VWS V14.00,2013-03-14 11:30:00,
2013-03-14 05:36:00,54.1,43.4,29.21,SW,229,0.0,0.0,67,0.00,,---,0.00,VWS V14.00,2013-03-14 12:36:00,
2013-03-14 05:42:00,54.1,43.8,29.23,SW,229,0.0,0.0,68,0.00,,---,0.00,VWS V14.00,2013-03-14 12:42:00,
2013-03-14 05:48:00,54.1,44.2,29.23,SW,229,0.0,0.0,69,0.00,,---,0.00,VWS V14.00,2013-03-14 12:48:00,
2013-03-14 05:54:00,54.1,43.8,29.23,SW,229,0.0,0.0,68,0.00,,---,0.00,VWS V14.00,2013-03-14 12:54:00,
2013-03-14 05:59:00,54.1,44.2,29.23,SW,229,0.0,0.0,69,0.00,,---,0.00,VWS V14.00,2013-03-14 12:59:00,
2013-03-14 06:05:00,54.0,43.7,29.23,SW,229,0.0,0.0,68,0.00,,---,0.00,VWS V14.00,2013-03-14 13:05:00,
2013-03-14 06:11:00,53.8,43.5,29.23,SW,229,0.0,0.0,68,0.00,,---,0.00,VWS V14.00,2013-03-14 13:11:00,
2013-03-14 06:16:00,53.4,43.5,29.23,SW,229,0.0,0.0,69,0.00,,---,0.00,VWS V14.00,2013-03-14 13:16:00,
2013-03-14 06:22:00,53.2,43.3,29.23,SW,229,0.0,0.0,69,0.00,,---,0.00,VWS V14.00,2013-03-14 13:22:00,
2013-03-14 06:28:00,53.1,43.2,29.23,SW,229,0.0,0.0,69,0.00,,---,0.00,VWS V14.00,2013-03-14 13:28:00,
2013-03-14 06:33:00,53.1,43.2,29.23,SW,229,0.0,0.0,69,0.00,,---,0.00,VWS V14.00,2013-03-14 13:33:00,
2013-03-14 06:39:00,52.9,43.0,29.23,SW,229,0.0,0.0,69,0.00,,---,0.00,VWS V14.00,2013-03-14 13:39:00,
2013-03-14 06:45:00,52.7,42.8,29.23,SW,229,0.0,0.0,69,0.00,,---,0.00,VWS V14.00,2013-03-14 13:45:00,
2013-03-14 06:50:00,52.7,42.8,29.23,SW,229,0.0,0.0,69,0.00,,---,0.00,VWS V14.00,2013-03-14 13:50:00,
2013-03-14 07:17:00,52.0,42.5,29.23,SW,229,0.0,0.0,70,0.00,,---,0.00,VWS V14.00,2013-03-14 14:17:00,
2013-03-14 07:22:00,51.8,42.3,29.23,SW,229,0.0,0.0,70,0.00,,---,0.00,VWS V14.00,2013-03-14 14:22:00,
2013-03-14 07:27:00,51.8,42.7,29.23,SW,229,0.0,0.0,71,0.00,,---,0.00,VWS V14.00,2013-03-14 14:27:00,
2013-03-14 07:32:00,51.6,42.5,29.23,SW,229,0.0,0.0,71,0.00,,---,0.00,VWS V14.00,2013-03-14 14:32:00,
2013-03-14 07:37:00,51.6,42.9,29.23,SW,229,0.0,0.0,72,0.00,,---,0.00,VWS V14.00,2013-03-14 14:37:00,
2013-03-14 07:43:00,51.8,42.7,29.23,SW,229,0.0,0.0,71,0.00,,---,0.00,VWS V14.00,2013-03-14 14:43:00,
2013-03-14 08:02:00,52.0,43.2,29.23,SW,229,0.0,0.0,72,0.00,,---,0.00,VWS V14.00,2013-03-14 15:02:00,
2013-03-14 08:15:00,52.2,43.8,29.23,SW,229,0.0,0.0,73,0.00,,---,0.00,VWS V14.00,2013-03-14 15:15:00,
2013-03-14 08:20:00,52.5,44.1,29.23,SW,229,0.0,0.0,73,0.00,,---,0.00,VWS V14.00,2013-03-14 15:20:00,
2013-03-14 08:29:00,52.9,44.5,29.23,SW,229,0.0,0.0,73,0.00,,---,0.00,VWS V14.00,2013-03-14 15:29:00,
2013-03-14 08:34:00,53.1,44.7,29.23,SW,229,0.0,0.0,73,0.00,,---,0.00,VWS V14.00,2013-03-14 15:34:00,
2013-03-14 08:40:00,53.6,45.2,29.26,SW,229,0.0,0.0,73,0.00,,---,0.00,VWS V14.00,2013-03-14 15:40:00,
2013-03-14 08:45:00,54.0,45.5,29.26,SW,229,0.0,0.0,73,0.00,,---,0.00,VWS V14.00,2013-03-14 15:45:00,
2013-03-14 08:51:00,54.5,46.4,29.26,SW,229,0.0,0.0,74,0.00,,---,0.00,VWS V14.00,2013-03-14 15:51:00,
2013-03-14 08:56:00,54.9,46.7,29.26,SW,229,0.0,0.0,74,0.00,,---,0.00,VWS V14.00,2013-03-14 15:56:00,
2013-03-14 09:02:00,55.2,47.1,29.26,SW,229,0.0,0.0,74,0.00,,---,0.00,VWS V14.00,2013-03-14 16:02:00,
2013-03-14 09:07:00,55.2,46.7,29.26,SW,229,0.0,0.0,73,0.00,,---,0.00,VWS V14.00,2013-03-14 16:07:00,
2013-03-14 09:13:00,55.2,46.7,29.26,SW,229,0.0,0.0,73,0.00,,---,0.00,VWS V14.00,2013-03-14 16:13:00,
2013-03-14 09:19:00,55.4,46.5,29.26,SW,229,0.0,0.0,72,0.00,,---,0.00,VWS V14.00,2013-03-14 16:19:00,
2013-03-14 09:24:00,55.6,46.7,29.26,SW,229,0.0,0.0,72,0.00,,---,0.00,VWS V14.00,2013-03-14 16:24:00,
2013-03-14 09:29:00,55.9,47.1,29.26,SW,229,0.0,0.0,72,0.00,,---,0.00,VWS V14.00,2013-03-14 16:29:00,
2013-03-14 09:34:00,56.3,47.4,29.26,SW,229,0.0,0.0,72,0.00,,---,0.00,VWS V14.00,2013-03-14 16:34:00,
2013-03-14 09:40:00,56.7,47.8,29.26,SW,229,0.0,0.0,72,0.00,,---,0.00,VWS V14.00,2013-03-14 16:40:00,
2013-03-14 09:49:00,57.2,47.5,29.26,SW,229,0.0,0.0,70,0.00,,---,0.00,VWS V14.00,2013-03-14 16:49:00,
2013-03-14 09:54:00,57.4,47.7,29.26,SW,229,0.0,0.0,70,0.00,,---,0.00,VWS V14.00,2013-03-14 16:54:00,
2013-03-14 10:01:00,58.1,48.0,29.26,SW,229,0.0,0.0,69,0.00,,---,0.00,VWS V14.00,2013-03-14 17:01:00,
2013-03-14 10:08:00,58.8,48.7,29.26,SW,229,0.0,0.0,69,0.00,,---,0.00,VWS V14.00,2013-03-14 17:08:00,
2013-03-14 10:14:00,59.5,48.6,29.29,SW,229,0.0,0.0,67,0.00,,---,0.00,VWS V14.00,2013-03-14 17:14:00,
2013-03-14 10:20:00,59.9,48.1,29.29,SW,229,0.0,0.0,65,0.00,,---,0.00,VWS V14.00,2013-03-14 17:20:00,
2013-03-14 10:27:00,60.3,48.0,29.29,SW,229,0.0,0.0,64,0.00,,---,0.00,VWS V14.00,2013-03-14 17:27:00,
2013-03-14 10:32:00,60.6,47.5,29.29,SW,229,0.0,0.0,62,0.00,,---,0.00,VWS V14.00,2013-03-14 17:32:00,
2013-03-14 10:38:00,61.0,46.6,29.29,SW,229,0.0,0.0,59,0.00,,---,0.00,VWS V14.00,2013-03-14 17:38:00,
2013-03-14 10:44:00,61.2,45.8,29.29,WSW,252,0.0,0.0,57,0.00,,---,0.00,VWS V14.00,2013-03-14 17:44:00,
2013-03-14 10:49:00,61.2,45.4,29.29,WSW,252,0.0,0.0,56,0.00,,---,0.00,VWS V14.00,2013-03-14 17:49:00,
2013-03-14 10:58:00,61.3,44.6,29.29,WSW,250,0.0,0.0,54,0.00,,---,0.00,VWS V14.00,2013-03-14 17:58:00,
2013-03-14 11:04:00,61.7,44.4,29.29,WSW,250,0.0,0.0,53,0.00,,---,0.00,VWS V14.00,2013-03-14 18:04:00,
2013-03-14 11:10:00,61.9,43.6,29.29,WSW,250,0.0,0.0,51,0.00,,---,0.00,VWS V14.00,2013-03-14 18:10:00,
2013-03-14 11:16:00,62.4,43.5,29.29,WSW,250,0.0,0.0,50,0.00,,---,0.00,VWS V14.00,2013-03-14 18:16:00,
2013-03-14 11:22:00,63.1,43.7,29.29,WSW,250,0.0,0.0,49,0.00,,---,0.00,VWS V14.00,2013-03-14 18:22:00,
2013-03-14 11:28:00,63.7,43.6,29.29,WSW,244,0.0,0.0,48,0.00,,---,0.00,VWS V14.00,2013-03-14 18:28:00,
2013-03-14 11:33:00,64.2,43.0,29.29,WNW,283,0.0,0.0,46,0.00,,---,0.00,VWS V14.00,2013-03-14 18:33:00,
2013-03-14 11:39:00,65.1,43.3,29.29,West,279,0.0,0.0,45,0.00,,---,0.00,VWS V14.00,2013-03-14 18:39:00,
2013-03-14 11:44:00,65.5,42.4,29.29,WSW,256,0.0,0.0,43,0.00,,---,0.00,VWS V14.00,2013-03-14 18:44:00,
2013-03-14 11:50:00,66.0,42.9,29.29,WSW,256,0.0,0.0,43,0.00,,---,0.00,VWS V14.00,2013-03-14 18:50:00,
2013-03-14 11:55:00,66.2,42.5,29.29,WSW,256,0.0,0.0,42,0.00,,---,0.00,VWS V14.00,2013-03-14 18:55:00,
2013-03-14 12:00:00,66.7,42.3,29.29,SW,224,0.0,0.0,41,0.00,,---,0.00,VWS V14.00,2013-03-14 19:00:00,
2013-03-14 12:05:00,67.1,42.0,29.29,West,281,0.0,0.0,40,0.00,,---,0.00,VWS V14.00,2013-03-14 19:05:00,
2013-03-14 12:12:00,67.5,42.3,29.29,West,280,0.0,0.0,40,0.00,,---,0.00,VWS V14.00,2013-03-14 19:12:00,
2013-03-14 12:18:00,67.8,42.0,29.29,SSW,207,0.0,0.0,39,0.00,,---,0.00,VWS V14.00,2013-03-14 19:18:00,
2013-03-14 12:30:00,68.2,41.6,29.29,South,180,0.0,0.0,38,0.00,,---,0.00,VWS V14.00,2013-03-14 19:30:00,
2013-03-14 12:36:00,68.0,40.8,29.29,West,263,0.0,0.0,37,0.00,,---,0.00,VWS V14.00,2013-03-14 19:36:00,
2013-03-14 12:41:00,68.0,40.8,29.29,West,263,0.0,0.0,37,0.00,,---,0.00,VWS V14.00,2013-03-14 19:41:00,
2013-03-14 12:46:00,68.0,40.8,29.29,West,263,0.0,0.0,37,0.00,,---,0.00,VWS V14.00,2013-03-14 19:46:00,
2013-03-14 12:51:00,68.2,40.9,29.29,West,263,0.0,0.0,37,0.00,,---,0.00,VWS V14.00,2013-03-14 19:51:00,
2013-03-14 12:57:00,68.2,40.9,29.29,West,261,0.0,0.0,37,0.00,,---,0.00,VWS V14.00,2013-03-14 19:57:00,
2013-03-14 13:03:00,68.4,40.4,29.29,West,261,0.0,0.0,36,0.00,,---,0.00,VWS V14.00,2013-03-14 20:03:00,
2013-03-14 13:08:00,68.4,40.4,29.29,West,261,0.0,0.0,36,0.00,,---,0.00,VWS V14.00,2013-03-14 20:08:00,
2013-03-14 13:13:00,68.4,40.4,29.29,West,261,0.0,0.0,36,0.00,,---,0.00,VWS V14.00,2013-03-14 20:13:00,
2013-03-14 13:19:00,68.4,39.7,29.29,West,264,0.0,0.0,35,0.00,,---,0.00,VWS V14.00,2013-03-14 20:19:00,
2013-03-14 13:25:00,68.5,39.8,29.29,WSW,238,0.0,0.0,35,0.00,,---,0.00,VWS V14.00,2013-03-14 20:25:00,
2013-03-14 13:30:00,68.7,40.0,29.29,WSW,245,0.0,0.0,35,0.00,,---,0.00,VWS V14.00,2013-03-14 20:30:00,
2013-03-14 13:36:00,68.9,40.2,29.29,WSW,250,0.0,0.0,35,0.00,,---,0.00,VWS V14.00,2013-03-14 20:36:00,
2013-03-14 13:41:00,68.9,40.2,29.29,WSW,250,0.0,0.0,35,0.00,,---,0.00,VWS V14.00,2013-03-14 20:41:00,
2013-03-14 13:47:00,69.1,40.3,29.29,WSW,250,0.0,0.0,35,0.00,,---,0.00,VWS V14.00,2013-03-14 20:47:00,
2013-03-14 13:53:00,69.1,39.6,29.29,WSW,257,0.0,0.0,34,0.00,,---,0.00,VWS V14.00,2013-03-14 20:53:00,
2013-03-14 13:59:00,69.3,39.7,29.26,WSW,257,0.0,0.0,34,0.00,,---,0.00,VWS V14.00,2013-03-14 20:59:00,
2013-03-14 14:05:00,69.4,39.9,29.26,WSW,241,0.0,0.0,34,0.00,,---,0.00,VWS V14.00,2013-03-14 21:05:00,
2013-03-14 14:11:00,69.8,40.2,29.29,West,265,0.0,0.0,34,0.00,,---,0.00,VWS V14.00,2013-03-14 21:11:00,
2013-03-14 14:17:00,70.2,40.5,29.29,West,265,0.0,0.0,34,0.00,,---,0.00,VWS V14.00,2013-03-14 21:17:00,
2013-03-14 14:23:00,70.2,39.7,29.29,West,265,0.0,0.0,33,0.00,,---,0.00,VWS V14.00,2013-03-14 21:23:00,
2013-03-14 14:31:00,70.3,39.9,29.26,WSW,250,0.0,0.0,33,0.00,,---,0.00,VWS V14.00,2013-03-14 21:31:00,
2013-03-14 14:36:00,70.5,40.1,29.26,West,266,0.0,0.0,33,0.00,,---,0.00,VWS V14.00,2013-03-14 21:36:00,
2013-03-14 14:43:00,70.5,40.1,29.26,West,276,0.0,0.0,33,0.00,,---,0.00,VWS V14.00,2013-03-14 21:43:00,
2013-03-14 14:48:00,70.5,40.1,29.26,West,273,0.0,0.0,33,0.00,,---,0.00,VWS V14.00,2013-03-14 21:48:00,
2013-03-14 14:54:00,70.5,40.1,29.26,West,271,0.0,0.0,33,0.00,,---,0.00,VWS V14.00,2013-03-14 21:54:00,
2013-03-14 14:59:00,70.5,40.1,29.26,SW,216,0.0,0.0,33,0.00,,---,0.00,VWS V14.00,2013-03-14 21:59:00,
2013-03-14 15:05:00,70.5,39.3,29.26,SW,223,0.0,0.0,32,0.00,,---,0.00,VWS V14.00,2013-03-14 22:05:00,
2013-03-14 15:10:00,70.3,39.1,29.26,West,265,0.0,0.0,32,0.00,,---,0.00,VWS V14.00,2013-03-14 22:10:00,
2013-03-14 15:16:00,70.2,39.0,29.26,SW,228,0.0,2.2,32,0.00,,---,0.00,VWS V14.00,2013-03-14 22:16:00,
2013-03-14 15:21:00,70.0,38.8,29.26,West,274,0.0,0.0,32,0.00,,---,0.00,VWS V14.00,2013-03-14 22:21:00,
2013-03-14 15:27:00,69.8,38.6,29.26,SW,222,0.0,0.0,32,0.00,,---,0.00,VWS V14.00,2013-03-14 22:27:00,
2013-03-14 15:33:00,69.8,38.6,29.26,WSW,255,0.0,0.0,32,0.00,,---,0.00,VWS V14.00,2013-03-14 22:33:00,
2013-03-14 15:38:00,69.8,38.6,29.26,West,260,0.0,0.0,32,0.00,,---,0.00,VWS V14.00,2013-03-14 22:38:00,
2013-03-14 15:44:00,69.8,38.6,29.26,WSW,248,0.0,0.0,32,0.00,,---,0.00,VWS V14.00,2013-03-14 22:44:00,
2013-03-14 15:50:00,69.8,38.6,29.26,West,266,0.0,0.0,32,0.00,,---,0.00,VWS V14.00,2013-03-14 22:50:00,
2013-03-14 15:56:00,69.6,38.5,29.26,West,265,0.0,2.7,32,0.00,,---,0.00,VWS V14.00,2013-03-14 22:56:00,
2013-03-14 16:01:00,69.4,38.3,29.26,West,265,0.0,0.0,32,0.00,,---,0.00,VWS V14.00,2013-03-14 23:01:00,
2013-03-14 16:07:00,69.6,38.5,29.26,WSW,251,0.0,0.0,32,0.00,,---,0.00,VWS V14.00,2013-03-14 23:07:00,
2013-03-14 16:13:00,69.6,38.5,29.26,WSW,251,0.0,0.0,32,0.00,,---,0.00,VWS V14.00,2013-03-14 23:13:00,
2013-03-14 16:19:00,69.4,38.3,29.26,WSW,244,0.0,0.0,32,0.00,,---,0.00,VWS V14.00,2013-03-14 23:19:00,
2013-03-14 16:25:00,69.1,38.0,29.26,West,267,0.0,0.0,32,0.00,,---,0.00,VWS V14.00,2013-03-14 23:25:00,
2013-03-14 16:30:00,68.9,37.8,29.26,South,184,0.0,0.0,32,0.00,,---,0.00,VWS V14.00,2013-03-14 23:30:00,
2013-03-14 16:36:00,68.7,37.7,29.26,West,272,0.0,0.0,32,0.00,,---,0.00,VWS V14.00,2013-03-14 23:36:00,
2013-03-14 16:41:00,68.2,37.2,29.26,SW,232,0.0,0.0,32,0.00,,---,0.00,VWS V14.00,2013-03-14 23:41:00,
2013-03-14 16:46:00,67.6,37.5,29.26,SW,233,0.0,0.0,33,0.00,,---,0.00,VWS V14.00,2013-03-14 23:46:00,
2013-03-14 16:52:00,67.3,37.2,29.26,WSW,256,0.0,0.0,33,0.00,,---,0.00,VWS V14.00,2013-03-14 23:52:00,
2013-03-14 16:59:00,66.9,36.9,29.26,WSW,256,0.0,0.0,33,0.00,,---,0.00,VWS V14.00,2013-03-14 23:59:00,
2013-03-14 17:05:00,66.6,36.6,29.26,WSW,256,0.0,0.0,33,0.00,,---,0.00,VWS V14.00,2013-03-15 00:05:00,
2013-03-14 17:10:00,66.2,36.3,29.26,WSW,256,0.0,0.0,33,0.00,,---,0.00,VWS V14.00,2013-03-15 00:10:00,
2013-03-14 17:15:00,65.8,36.7,29.26,WSW,256,0.0,0.0,34,0.00,,---,0.00,VWS V14.00,2013-03-15 00:15:00,
2013-03-14 17:21:00,65.5,36.4,29.26,WSW,256,0.0,0.0,34,0.00,,---,0.00,VWS V14.00,2013-03-15 00:21:00,
2013-03-14 17:26:00,65.1,36.1,29.26,WSW,256,0.0,0.0,34,0.00,,---,0.00,VWS V14.00,2013-03-15 00:26:00,
2013-03-14 17:31:00,64.9,35.9,29.26,WSW,256,0.0,0.0,34,0.00,,---,0.00,VWS V14.00,2013-03-15 00:31:00,
2013-03-14 17:36:00,64.8,35.8,29.26,WSW,256,0.0,0.0,34,0.00,,---,0.00,VWS V14.00,2013-03-15 00:36:00,
2013-03-14 17:41:00,64.4,35.5,29.26,WSW,256,0.0,0.0,34,0.00,,---,0.00,VWS V14.00,2013-03-15 00:41:00,
2013-03-14 17:46:00,64.0,35.9,29.26,WSW,256,0.0,0.0,35,0.00,,---,0.00,VWS V14.00,2013-03-15 00:46:00,
2013-03-14 17:52:00,63.7,35.5,29.26,WSW,256,0.0,0.0,35,0.00,,---,0.00,VWS V14.00,2013-03-15 00:52:00,
2013-03-14 17:57:00,63.5,35.4,29.26,WSW,256,0.0,0.0,35,0.00,,---,0.00,VWS V14.00,2013-03-15 00:57:00,
2013-03-14 18:03:00,63.0,35.6,29.26,WSW,256,0.0,0.0,36,0.00,,---,0.00,VWS V14.00,2013-03-15 01:03:00,
2013-03-14 18:09:00,62.8,35.5,29.26,WSW,256,0.0,0.0,36,0.00,,---,0.00,VWS V14.00,2013-03-15 01:09:00,
2013-03-14 18:14:00,62.4,35.1,29.26,WSW,256,0.0,0.0,36,0.00,,---,0.00,VWS V14.00,2013-03-15 01:14:00,
2013-03-14 18:19:00,62.2,35.0,29.26,WSW,256,0.0,0.0,36,0.00,,---,0.00,VWS V14.00,2013-03-15 01:19:00,
2013-03-14 18:24:00,61.9,35.3,29.26,WSW,256,0.0,0.0,37,0.00,,---,0.00,VWS V14.00,2013-03-15 01:24:00,
2013-03-14 18:30:00,61.7,35.2,29.26,WSW,256,0.0,0.0,37,0.00,,---,0.00,VWS V14.00,2013-03-15 01:30:00,
2013-03-14 18:35:00,61.5,35.0,29.26,WSW,256,0.0,0.0,37,0.00,,---,0.00,VWS V14.00,2013-03-15 01:35:00,
2013-03-14 18:41:00,61.2,35.4,29.26,WSW,256,0.0,0.0,38,0.00,,---,0.00,VWS V14.00,2013-03-15 01:41:00,
2013-03-14 18:47:00,61.2,35.4,29.26,WSW,256,0.0,0.0,38,0.00,,---,0.00,VWS V14.00,2013-03-15 01:47:00,
2013-03-14 18:54:00,60.8,35.1,29.26,WSW,256,0.0,0.0,38,0.00,,---,0.00,VWS V14.00,2013-03-15 01:54:00,
2013-03-14 19:00:00,60.8,35.7,29.23,WSW,256,0.0,0.0,39,0.00,,---,0.00,VWS V14.00,2013-03-15 02:00:00,
2013-03-14 19:08:00,60.4,35.4,29.23,WSW,256,0.0,0.0,39,0.00,,---,0.00,VWS V14.00,2013-03-15 02:08:00,
2013-03-14 19:14:00,60.1,35.7,29.23,WSW,256,0.0,0.0,40,0.00,,---,0.00,VWS V14.00,2013-03-15 02:14:00,
2013-03-14 19:19:00,60.1,35.7,29.23,WSW,256,0.0,0.0,40,0.00,,---,0.00,VWS V14.00,2013-03-15 02:19:00,
2013-03-14 19:25:00,59.7,35.4,29.23,WSW,256,0.0,0.0,40,0.00,,---,0.00,VWS V14.00,2013-03-15 02:25:00,
2013-03-14 19:30:00,59.5,35.2,29.23,WSW,256,0.0,0.0,40,0.00,,---,0.00,VWS V14.00,2013-03-15 02:30:00,
2013-03-14 19:35:00,59.4,35.7,29.23,WSW,256,0.0,0.0,41,0.00,,---,0.00,VWS V14.00,2013-03-15 02:35:00,
2013-03-14 19:40:00,59.4,35.7,29.23,WSW,256,0.0,0.0,41,0.00,,---,0.00,VWS V14.00,2013-03-15 02:40:00,
2013-03-14 19:45:00,59.0,36.0,29.23,WSW,243,0.0,0.0,42,0.00,,---,0.00,VWS V14.00,2013-03-15 02:45:00,
2013-03-14 19:50:00,58.8,36.4,29.23,WSW,243,0.0,0.0,43,0.00,,---,0.00,VWS V14.00,2013-03-15 02:50:00,
2013-03-14 19:56:00,58.6,36.2,29.23,WSW,243,0.0,0.0,43,0.00,,---,0.00,VWS V14.00,2013-03-15 02:56:00,
2013-03-14 20:02:00,58.3,36.5,29.23,WSW,243,0.0,0.0,44,0.00,,---,0.00,VWS V14.00,2013-03-15 03:02:00,
2013-03-14 20:07:00,58.1,36.3,29.23,WSW,243,0.0,0.0,44,0.00,,---,0.00,VWS V14.00,2013-03-15 03:07:00,
2013-03-14 20:13:00,57.9,36.2,29.26,WSW,243,0.0,0.0,44,0.00,,---,0.00,VWS V14.00,2013-03-15 03:13:00,
2013-03-14 20:19:00,57.6,36.4,29.26,WSW,251,0.0,0.0,45,0.00,,---,0.00,VWS V14.00,2013-03-15 03:19:00,
2013-03-14 20:24:00,57.4,36.2,29.26,WSW,251,0.0,0.0,45,0.00,,---,0.00,VWS V14.00,2013-03-15 03:24:00,
2013-03-14 20:29:00,57.0,36.5,29.26,SW,233,0.0,0.0,46,0.00,,---,0.00,VWS V14.00,2013-03-15 03:29:00,
2013-03-14 20:35:00,56.8,36.8,29.26,SW,232,0.0,0.0,47,0.00,,---,0.00,VWS V14.00,2013-03-15 03:35:00,
2013-03-14 20:41:00,56.7,36.7,29.23,SW,233,0.0,0.0,47,0.00,,---,0.00,VWS V14.00,2013-03-15 03:41:00,
2013-03-14 20:46:00,56.5,37.0,29.23,SW,232,0.0,0.0,48,0.00,,---,0.00,VWS V14.00,2013-03-15 03:46:00,
2013-03-14 20:52:00,56.3,36.9,29.23,SW,232,0.0,0.0,48,0.00,,---,0.00,VWS V14.00,2013-03-15 03:52:00,
2013-03-14 21:01:00,55.9,37.1,29.26,SW,232,0.0,0.0,49,0.00,,---,0.00,VWS V14.00,2013-03-15 04:01:00,
2013-03-14 21:02:00,55.9,37.1,29.26,SW,232,0.0,0.0,49,0.00,,---,0.00,VWS V14.00,2013-03-15 04:02:00,
2013-03-14 21:03:00,55.8,36.9,29.26,SW,232,0.0,0.0,49,0.00,,---,0.00,VWS V14.00,2013-03-15 04:03:00,
2013-03-14 21:08:00,55.6,37.2,29.26,SW,233,0.0,0.0,50,0.00,,---,0.00,VWS V14.00,2013-03-15 04:08:00,
2013-03-14 21:13:00,55.4,37.1,29.26,SW,232,0.0,0.0,50,0.00,,---,0.00,VWS V14.00,2013-03-15 04:13:00,
2013-03-14 21:18:00,55.2,37.4,29.26,SW,232,0.0,0.0,51,0.00,,---,0.00,VWS V14.00,2013-03-15 04:18:00,
2013-03-14 21:23:00,54.9,37.1,29.26,SW,233,0.0,0.0,51,0.00,,---,0.00,VWS V14.00,2013-03-15 04:23:00,
2013-03-14 21:28:00,54.7,36.9,29.26,SW,232,0.0,0.0,51,0.00,,---,0.00,VWS V14.00,2013-03-15 04:28:00,
2013-03-14 21:33:00,54.5,37.2,29.26,SW,232,0.0,0.0,52,0.00,,---,0.00,VWS V14.00,2013-03-15 04:33:00,
2013-03-14 21:39:00,54.5,37.2,29.26,SW,232,0.0,0.0,52,0.00,,---,0.00,VWS V14.00,2013-03-15 04:39:00,
2013-03-14 21:44:00,54.5,37.7,29.26,SW,232,0.0,0.0,53,0.00,,---,0.00,VWS V14.00,2013-03-15 04:44:00,
2013-03-14 21:50:00,54.5,38.2,29.26,SW,232,0.0,0.0,54,0.00,,---,0.00,VWS V14.00,2013-03-15 04:50:00,
2013-03-14 21:57:00,54.3,38.0,29.26,SW,233,0.0,0.0,54,0.00,,---,0.00,VWS V14.00,2013-03-15 04:57:00,
2013-03-14 22:03:00,54.1,38.3,29.26,SW,223,0.0,0.0,55,0.00,,---,0.00,VWS V14.00,2013-03-15 05:03:00,
2013-03-14 22:08:00,54.1,38.8,29.26,SW,223,0.0,0.0,56,0.00,,---,0.00,VWS V14.00,2013-03-15 05:08:00,
2013-03-14 22:14:00,54.0,38.2,29.26,SW,223,0.0,0.0,55,0.00,,---,0.00,VWS V14.00,2013-03-15 05:14:00,
2013-03-14 22:19:00,53.8,38.0,29.26,SW,223,0.0,0.0,55,0.00,,---,0.00,VWS V14.00,2013-03-15 05:19:00,
2013-03-14 22:25:00,53.4,37.7,29.26,SW,223,0.0,0.0,55,0.00,,---,0.00,VWS V14.00,2013-03-15 05:25:00,
2013-03-14 22:30:00,53.1,37.8,29.26,SW,223,0.0,0.0,56,0.00,,---,0.00,VWS V14.00,2013-03-15 05:30:00,
2013-03-14 22:36:00,52.9,37.6,29.26,SW,223,0.0,0.0,56,0.00,,---,0.00,VWS V14.00,2013-03-15 05:36:00,
2013-03-14 22:42:00,52.7,37.9,29.26,SW,223,0.0,0.0,57,0.00,,---,0.00,VWS V14.00,2013-03-15 05:42:00,
2013-03-14 22:47:00,52.5,38.2,29.26,SW,223,0.0,0.0,58,0.00,,---,0.00,VWS V14.00,2013-03-15 05:47:00,
2013-03-14 23:18:00,52.0,38.1,29.26,SW,223,0.0,0.0,59,0.00,,---,0.00,VWS V14.00,2013-03-15 06:18:00,
2013-03-14 23:23:00,52.2,38.3,29.26,SW,223,0.0,0.0,59,0.00,,---,0.00,VWS V14.00,2013-03-15 06:23:00,
2013-03-14 23:28:00,52.0,38.1,29.26,SW,223,0.0,0.0,59,0.00,,---,0.00,VWS V14.00,2013-03-15 06:28:00,
2013-03-14 23:33:00,52.0,38.1,29.26,SW,223,0.0,0.0,59,0.00,,---,0.00,VWS V14.00,2013-03-15 06:33:00,
2013-03-14 23:39:00,51.8,38.4,29.26,SW,223,0.0,0.0,60,0.00,,---,0.00,VWS V14.00,2013-03-15 06:39:00,
2013-03-14 23:44:00,51.6,38.2,29.26,SW,223,0.0,0.0,60,0.00,,---,0.00,VWS V14.00,2013-03-15 06:44:00,
2013-03-14 23:49:00,51.3,37.9,29.26,SW,223,0.0,0.0,60,0.00,,---,0.00,VWS V14.00,2013-03-15 06:49:00,
2013-03-14 23:55:00,51.1,37.7,29.26,SW,223,0.0,0.0,60,0.00,,---,0.00,VWS V14.00,2013-03-15 06:55:00,